| time (UTC) | temp F | wind direction | speed knots | gust knots | rain 1hr in | rain 24hr in | rain mn in | humidity % | barometer mb |
| 20260505125025 | 52 | 86 | 2.6 | 5.2 | 0.00 | 0.02 | 0.02 | 72 | 1009.9 |
| 20260505124034 | 54 | 89 | 2.6 | 5.2 | 0.00 | 0.02 | 0.02 | 66 | 1009.8 |
| 20260505123023 | 54 | 91 | 2.6 | 5.2 | 0.00 | 0.01 | 0.01 | 65 | 1009.7 |
| 20260505122033 | 53 | 84 | 1.7 | 3.5 | 0.00 | 0.01 | 0.01 | 66 | 1009.7 |
| 20260505121024 | 54 | 78 | 0.9 | 2.6 | 0.00 | 0.01 | 0.01 | 64 | 1009.6 |
| 20260505120111 | 54 | 110 | 1.7 | 3.5 | 0.00 | 0.01 | 0.01 | 62 | 1009.6 |
| 20260505115021 | 54 | 80 | 2.6 | 4.3 | 0.00 | 0.01 | 0.01 | 63 | 1009.5 |
| 20260505114032 | 53 | 70 | 2.6 | 3.5 | 0.00 | 0.01 | 0.01 | 65 | 1009.5 |
| 20260505113021 | 53 | 75 | 2.6 | 3.5 | 0.00 | 0.01 | 0.01 | 66 | 1009.6 |
| 20260505112110 | 54 | 92 | 1.7 | 3.5 | 0.00 | 0.01 | 0.01 | 62 | 1009.5 |
| 20260505111019 | 54 | 114 | 2.6 | 5.2 | 0.00 | 0.01 | 0.01 | 62 | 1009.7 |
| 20260505102025 | 55 | 70 | 2.6 | 3.5 | 0.00 | 0.01 | 0.01 | 63 | 1009.9 |
| 20260505101019 | 55 | 103 | 3.5 | 6.1 | 0.00 | 0.01 | 0.01 | 60 | 1009.9 |
| 20260505100033 | 54 | 77 | 2.6 | 4.3 | 0.00 | 0.01 | 0.01 | 67 | 1009.9 |
| 20260505095107 | 53 | 83 | 1.7 | 3.5 | 0.01 | 0.01 | 0.01 | 70 | 1009.8 |
| 20260505094101 | 54 | 75 | 2.6 | 3.5 | 0.01 | 0.01 | 0.01 | 70 | 1009.9 |
| 20260505093015 | 54 | 79 | 1.7 | 2.6 | 0.01 | 0.01 | 0.01 | 65 | 1009.8 |
| 20260505092029 | 54 | 83 | 1.7 | 3.5 | 0.01 | 0.01 | 0.01 | 68 | 1009.8 |
| 20260505091023 | 54 | 79 | 1.7 | 3.5 | 0.01 | 0.01 | 0.01 | 70 | 1009.9 |
| 20260505090017 | 53 | 80 | 2.6 | 5.2 | 0.01 | 0.01 | 0.01 | 71 | 1010.0 |
| 20260505085032 | 54 | 73 | 3.5 | 7.8 | 0.00 | 0.00 | 0.00 | 71 | 1010.1 |
| 20260505084026 | 55 | 87 | 2.6 | 3.5 | 0.00 | 0.00 | 0.00 | 67 | 1010.2 |
| 20260505083019 | 55 | 82 | 1.7 | 2.6 | 0.00 | 0.00 | 0.00 | 66 | 1010.2 |
| 20260505082033 | 55 | 67 | 2.6 | 5.2 | 0.00 | 0.00 | 0.00 | 63 | 1010.3 |
| 20260505081026 | 56 | 68 | 1.7 | 2.6 | 0.00 | 0.00 | 0.00 | 60 | 1010.5 |
| 20260505080020 | 56 | 292 | 0.9 | 3.5 | 0.00 | 0.00 | 0.00 | 59 | 1010.2 |
| 20260505075113 | 56 | 34 | 1.7 | 2.6 | 0.00 | 0.00 | 0.00 | 59 | 1010.3 |
| 20260505074025 | 56 | 83 | 2.6 | 4.3 | 0.00 | 0.00 | 0.00 | 59 | 1010.3 |
| 20260505073018 | 56 | 27 | 1.7 | 1.7 | 0.00 | 0.00 | 0.00 | 59 | 1010.3 |
| 20260505072032 | 56 | 32 | 0.9 | 2.6 | 0.00 | 0.00 | 0.00 | 59 | 1010.3 |
| 20260505071024 | 56 | 91 | 2.6 | 3.5 | 0.00 | 0.00 | 0.00 | 59 | 1010.3 |
| 20260505070016 | 56 | 72 | 2.6 | 4.3 | 0.00 | 0.00 | 0.00 | 61 | 1010.4 |
| 20260505065030 | 56 | 86 | 2.6 | 4.3 | 0.00 | 0.00 | 0.00 | 61 | 1010.5 |
| 20260505064023 | 56 | 109 | 2.6 | 5.2 | 0.00 | 0.00 | 0.00 | 61 | 1010.4 |
| 20260505063017 | 56 | 114 | 1.7 | 5.2 | 0.00 | 0.00 | 0.00 | 60 | 1010.3 |
| 20260505062031 | 56 | 119 | 1.7 | 4.3 | 0.00 | 0.00 | 0.00 | 60 | 1010.2 |
| 20260505061025 | 56 | 128 | 3.5 | 7.0 | 0.00 | 0.00 | 0.00 | 59 | 1010.3 |
| 20260505060018 | 57 | 117 | 3.5 | 7.0 | 0.00 | 0.00 | 0.00 | 58 | 1010.1 |
| 20260505055033 | 57 | 93 | 3.5 | 6.1 | 0.00 | 0.00 | 0.00 | 56 | 1010.1 |
| 20260505054107 | 58 | 139 | 1.7 | 5.2 | 0.00 | 0.00 | 0.00 | 56 | 1010.1 |
| 20260505053020 | 58 | 184 | 1.7 | 5.2 | 0.00 | 0.00 | 0.00 | 55 | 1010.0 |
| 20260505052114 | 59 | 127 | 2.6 | 4.3 | 0.00 | 0.00 | 0.00 | 53 | 1009.8 |
| 20260505051027 | 59 | 62 | 1.7 | 4.3 | 0.00 | 0.00 | 0.00 | 52 | 1009.9 |
| 20260505041029 | 61 | 75 | 2.6 | 5.2 | 0.00 | 0.00 | 0.00 | 44 | 1009.0 |
| 20260505040021 | 60 | 216 | 1.7 | 4.3 | 0.00 | 0.00 | 0.00 | 46 | 1008.9 |
| 20260505035035 | 59 | 36 | 1.7 | 3.5 | 0.00 | 0.00 | 0.00 | 45 | 1008.6 |
| 20260505034028 | 60 | 48 | 2.6 | 4.3 | 0.00 | 0.00 | 0.00 | 44 | 1008.4 |
| 20260505033022 | 60 | 52 | 2.6 | 3.5 | 0.00 | 0.00 | 0.00 | 43 | 1008.1 |
| 20260505032055 | 61 | 39 | 2.6 | 3.5 | 0.00 | 0.00 | 0.00 | 42 | 1008.1 |
| 20260505031028 | 62 | 39 | 2.6 | 3.5 | 0.00 | 0.00 | 0.00 | 41 | 1007.9 |
| 20260505030022 | 63 | 48 | 2.6 | 3.5 | 0.00 | 0.00 | 0.00 | 39 | 1007.9 |
| 20260505025057 | 64 | 31 | 0.9 | 3.5 | 0.00 | 0.00 | 0.00 | 38 | 1007.8 |
| 20260505024031 | 65 | 78 | 3.5 | 5.2 | 0.00 | 0.00 | 0.00 | 37 | 1007.7 |
| 20260505023105 | 65 | 62 | 1.7 | 2.6 | 0.00 | 0.00 | 0.00 | 36 | 1007.7 |
| 20260505022058 | 65 | 47 | 1.7 | 3.5 | 0.00 | 0.00 | 0.00 | 36 | 1007.7 |
| 20260505020108 | 65 | 31 | 2.6 | 4.3 | 0.00 | 0.00 | 0.00 | 36 | 1007.5 |
| 20260505015021 | 65 | 44 | 2.6 | 4.3 | 0.00 | 0.00 | 0.00 | 36 | 1007.4 |
| 20260505014035 | 65 | 31 | 3.5 | 9.6 | 0.00 | 0.00 | 0.00 | 36 | 1007.4 |
| 20260505013029 | 65 | 52 | 3.5 | 6.1 | 0.00 | 0.00 | 0.00 | 36 | 1007.6 |
| 20260505012024 | 65 | 37 | 4.3 | 8.7 | 0.00 | 0.00 | 0.00 | 37 | 1007.7 |
| 20260505011018 | 64 | 34 | 4.3 | 11.3 | 0.00 | 0.00 | 0.00 | 38 | 1007.7 |
| 20260505010032 | 64 | 34 | 4.3 | 8.7 | 0.00 | 0.00 | 0.00 | 37 | 1007.6 |
| 20260505005026 | 64 | 44 | 4.3 | 9.6 | 0.00 | 0.00 | 0.00 | 39 | 1007.7 |
| 20260505004100 | 64 | 47 | 6.1 | 14.8 | 0.00 | 0.00 | 0.00 | 40 | 1007.8 |
| 20260505003035 | 63 | 44 | 5.2 | 10.4 | 0.00 | 0.00 | 0.00 | 41 | 1007.9 |
| 20260505002028 | 63 | 57 | 5.2 | 13.9 | 0.00 | 0.00 | 0.00 | 41 | 1008.2 |
| 20260505001022 | 63 | 58 | 4.3 | 10.4 | 0.00 | 0.00 | 0.00 | 43 | 1008.2 |
| 20260505000017 | 63 | 75 | 7.0 | 15.6 | 0.00 | 0.00 | 0.00 | 43 | 1008.3 |
| 20260504235031 | 63 | 53 | 5.2 | 10.4 | 0.00 | 0.00 | 0.00 | 44 | 1008.4 |
| 20260504234025 | 62 | 52 | 7.8 | 15.6 | 0.00 | 0.00 | 0.00 | 45 | 1008.8 |
| 20260504233019 | 62 | 47 | 7.0 | 13.9 | 0.00 | 0.00 | 0.00 | 44 | 1008.9 |
| 20260504232032 | 63 | 38 | 7.0 | 15.6 | 0.00 | 0.00 | 0.00 | 42 | 1008.9 |
| 20260504231026 | 65 | 43 | 5.2 | 11.3 | 0.00 | 0.00 | 0.00 | 38 | 1008.8 |
| 20260504230100 | 64 | 87 | 4.3 | 10.4 | 0.00 | 0.00 | 0.00 | 39 | 1008.8 |
| 20260504225034 | 64 | 93 | 5.2 | 12.2 | 0.00 | 0.00 | 0.00 | 39 | 1008.9 |
| 20260504224028 | 65 | 95 | 4.3 | 9.6 | 0.00 | 0.00 | 0.00 | 39 | 1008.8 |
| 20260504223022 | 64 | 113 | 3.5 | 11.3 | 0.00 | 0.00 | 0.00 | 41 | 1008.8 |
| 20260504222015 | 66 | 130 | 5.2 | 13.0 | 0.00 | 0.00 | 0.00 | 38 | 1008.7 |
| 20260504221029 | 69 | 170 | 3.5 | 8.7 | 0.00 | 0.00 | 0.00 | 31 | 1008.5 |
| 20260504220023 | 71 | 203 | 1.7 | 4.3 | 0.00 | 0.00 | 0.00 | 28 | 1008.2 |
| 20260504215017 | 71 | 279 | 1.7 | 6.1 | 0.00 | 0.00 | 0.00 | 27 | 1008.2 |
| 20260504214031 | 71 | 256 | 1.7 | 5.2 | 0.00 | 0.00 | 0.00 | 26 | 1008.2 |
| 20260504213025 | 72 | 299 | 1.7 | 5.2 | 0.00 | 0.00 | 0.00 | 27 | 1008.3 |
| 20260504212018 | 73 | 280 | 3.5 | 8.7 | 0.00 | 0.00 | 0.00 | 26 | 1008.3 |
| 20260504211031 | 71 | 273 | 3.5 | 7.0 | 0.00 | 0.00 | 0.00 | 27 | 1008.4 |
| 20260504210024 | 73 | 251 | 6.1 | 10.4 | 0.00 | 0.00 | 0.00 | 26 | 1008.5 |
| 20260504205018 | 73 | 299 | 2.6 | 5.2 | 0.00 | 0.00 | 0.00 | 27 | 1008.6 |
| 20260504204112 | 73 | 284 | 4.3 | 9.6 | 0.00 | 0.00 | 0.00 | 28 | 1008.6 |
| 20260504203027 | 72 | 296 | 1.7 | 3.5 | 0.00 | 0.00 | 0.00 | 28 | 1008.7 |
| 20260504202021 | 71 | 321 | 1.7 | 5.2 | 0.00 | 0.00 | 0.00 | 29 | 1008.9 |
| 20260504201035 | 72 | 281 | 0.9 | 2.6 | 0.00 | 0.00 | 0.00 | 28 | 1009.0 |
| 20260504200028 | 72 | 323 | 4.3 | 8.7 | 0.00 | 0.00 | 0.00 | 27 | 1009.1 |
| 20260504195123 | 74 | 323 | 3.5 | 7.0 | 0.00 | 0.00 | 0.00 | 29 | 1009.1 |
| 20260504194055 | 73 | 285 | 2.6 | 6.1 | 0.00 | 0.00 | 0.00 | 29 | 1009.2 |
| 20260504193029 | 72 | 278 | 2.6 | 5.2 | 0.00 | 0.00 | 0.00 | 28 | 1009.3 |
| 20260504192024 | 71 | 283 | 3.5 | 6.1 | 0.00 | 0.00 | 0.00 | 29 | 1009.4 |
| 20260504191017 | 72 | 304 | 4.3 | 8.7 | 0.00 | 0.00 | 0.00 | 29 | 1009.5 |
| 20260504190030 | 72 | 308 | 2.6 | 5.2 | 0.00 | 0.00 | 0.00 | 29 | 1009.6 |
| 20260504185025 | 71 | 287 | 4.3 | 8.7 | 0.00 | 0.00 | 0.00 | 28 | 1009.7 |
| 20260504184020 | 71 | 287 | 3.5 | 6.1 | 0.00 | 0.00 | 0.00 | 29 | 1009.8 |
| 20260504183035 | 72 | 78 | 1.7 | 7.0 | 0.00 | 0.00 | 0.00 | 29 | 1009.9 |
| 20260504182028 | 70 | 341 | 2.6 | 5.2 | 0.00 | 0.00 | 0.00 | 29 | 1010.1 |
| 20260504181027 | 70 | 233 | 2.6 | 7.0 | 0.00 | 0.00 | 0.00 | 29 | 1010.3 |
| 20260504180016 | 70 | 283 | 1.7 | 6.1 | 0.00 | 0.00 | 0.00 | 30 | 1010.3 |
| 20260504175030 | 70 | 273 | 3.5 | 5.2 | 0.00 | 0.00 | 0.00 | 31 | 1010.5 |
| 20260504174105 | 69 | 292 | 1.7 | 5.2 | 0.00 | 0.00 | 0.00 | 31 | 1010.5 |
| 20260504173058 | 69 | 313 | 1.7 | 3.5 | 0.00 | 0.00 | 0.00 | 32 | 1010.6 |
| 20260504172032 | 68 | 235 | 2.6 | 5.2 | 0.00 | 0.00 | 0.00 | 32 | 1010.8 |
| 20260504171106 | 69 | 213 | 1.7 | 6.1 | 0.00 | 0.00 | 0.00 | 32 | 1010.9 |
| 20260504151034 | 63 | 252 | 1.7 | 4.3 | 0.00 | 0.00 | 0.00 | 37 | 1011.2 |